Location: Pescara
(42.4670°N, 14.2170°E)
Time: 17:17:22
(UTC+02:00)

ISS - Pass Details

Date: 18 May 2021
Orbit: 417 x 422 km, 51.6° (Epoch: 18 June)

Event Time Altitude Azimuth Distance (km) Brightness Sun altitude
Rises 01:17:48 0° 305° (NW) 2,371 0.5 -27.8°
Reaches altitude 10° 01:20:13 10° 321° (NW) 1,507 -0.4 -27.8°
Enters shadow 01:22:22 21° 359° (N) 999 -1.2 -27.8°
